Location: Artassenx
(43.8467°N, 0.3978°W)
Time: 13:25:03
(UTC+00:00)

Daily predictions for brighter satellites

Satellite Brightness Start Highest point End
(mag) Time Altitude Azimuth Time Altitude Azimuth Time Altitude Azimuth
Cosmos 1763 Rocket 3.6 20:13:04 10° NNW 20:18:20 87° WSW 20:23:30 10° SSE
Cosmos 1707 2.6 20:19:07 10° S 20:22:39 59° E 20:26:13 10° NNE
RESURS DK-1 3.9 20:19:46 10° N 20:23:06 24° NE 20:26:25 10° ESE
CSL-04 Rocket 4.3 20:18:50 10° S 20:24:02 58° W 20:29:19 10° NNW
Terra 2.9 20:22:32 10° SE 20:26:34 29° ENE 20:30:38 10° N
IRIDIUM 104 4.4 20:22:32 10° N 20:27:47 86° W 20:33:00 10° S
PSLV R/B 4.4 20:24:44 10° S 20:28:10 50° W 20:31:36 10° NNW
CZ-4C R/B 3.4 20:31:34 10° NNE 20:35:42 67° ESE 20:39:46 10° S
Cosmos 1980 Rocket 3.4 20:30:31 10° NW 20:35:45 39° WSW 20:40:56 10° S
ATLAS 2AS CENTAUR R/B 3.7 20:31:01 10° NNW 20:37:18 36° NE 20:43:22 10° ESE
Cosmos 2322 Rocket 3.1 20:32:34 10° N 20:37:47 36° NE 20:42:59 10° ESE
BREEZE-M DEB (TANK) 2.9 20:35:37 10° SW 20:38:42 73° SSE 20:48:14 10° ENE
COSMOS 2406 4.1 20:34:17 10° SW 20:39:54 55° WNW 20:45:34 10° NNE
Cosmos 1674 3.7 20:38:15 10° SSW 20:41:33 43° WNW 20:44:53 10° N
ARGOS Delta rocket 3.6 20:38:15 10° SSE 20:42:42 72° ENE 20:47:05 10° N
Meteor 2-10 Rocket 4.4 20:37:59 10° N 20:43:09 38° ENE 20:47:42 12° SE
SL-4 R/B 4.0 20:44:46 10° WNW 20:48:02 27° N 20:51:29 10° NE
Cosmos 1733 Rocket 4.4 20:46:20 10° NNE 20:49:58 24° ENE 20:53:00 13° ESE
Cosmos 2278 3.7 20:44:57 10° NNW 20:50:42 86° ENE 20:56:03 12° SSE
Cosmos 468 Rocket 4.2 20:45:31 10° NNW 20:50:43 69° WSW 20:55:50 10° S
Cosmos 1553 Rocket 4.2 20:45:35 10° NNW 20:51:45 74° W 20:58:00 10° S
Ariane Rocket 3.5 20:48:54 12° SE 20:53:19 45° ENE 20:58:09 10° N
Timation 1 Rocket 4.4 20:48:48 10° S 20:54:38 62° ESE 21:00:31 10° NNE
Cosmos 1300 3.7 20:52:05 10° NNE 20:55:10 27° ENE 20:57:21 15° SE
SL-27 R/B 3.3 20:54:25 17° SE 20:55:25 21° ESE 20:57:35 10° NE
S3M 4.1 20:49:20 10° N 20:55:41 66° E 21:01:40 11° SSE
Okean-O 3.4 20:51:59 10° S 20:56:15 51° W 21:00:35 10° NNW
Cosmos 1400 Rocket 2.7 20:55:20 10° S 20:59:10 62° E 21:02:58 10° NNE
Meteor 1-13 Rocket 4.3 20:53:54 10° S 20:59:42 88° W 21:05:25 10° N
Cosmos 1441 Rocket 3.3 20:56:32 10° NNW 21:00:08 66° W 21:03:43 10° S
Cosmos 2219 Rocket 3.7 20:57:36 10° N 21:02:13 25° NE 21:06:49 10° ESE
Cosmos 1356 Rocket 4.1 20:59:27 14° SSE 21:02:37 37° E 21:06:30 10° NNE
BREEZE-M DEB (TANK) 3.2 21:02:00 10° NW 21:03:56 32° NNE 21:06:27 10° E
Cosmos 2266 Rocket 4.0 20:57:52 10° S 21:04:09 77° E 21:10:34 10° N
USA 245 3.2 21:02:18 16° SSE 21:05:02 75° ENE 21:09:24 10° N
ATLAS CENTAUR R/B 1.0 21:01:48 10° SSW 21:05:10 51° ESE 21:08:38 10° NE
Cosmos 1908 3.7 21:02:07 10° NNW 21:05:38 53° W 21:09:09 10° S
Cosmos 540 Rocket 4.4 21:01:33 10° NNW 21:06:26 44° WSW 21:11:16 10° S
Cosmos 1850 Rocket 4.1 21:02:00 10° S 21:07:07 57° ESE 21:12:13 10° NNE
Cosmos 2237 4.3 21:01:40 10° NNW 21:07:26 79° WSW 21:12:18 14° SSE
Cosmos 1655 Rocket 4.2 21:03:33 10° S 21:09:47 59° E 21:16:04 10° NNE
Meteor 1-4 Rocket 3.9 21:13:07 16° E 21:13:25 16° E 21:15:24 10° NE
Cosmos 2228 Rocket 3.4 21:09:51 14° SSE 21:13:36 53° E 21:18:04 10° NNE
Cosmos 1869 Rocket 3.8 21:09:48 10° NNW 21:14:15 70° W 21:18:19 12° S
MOS 1 Rocket 3.7 21:10:22 15° SSE 21:14:48 70° ENE 21:20:05 10° N
Okean O Rocket 4.1 21:12:34 10° SW 21:15:32 18° W 21:18:31 10° NW
Cosmos 1315 Rocket 4.4 21:17:29 17° ESE 21:18:39 19° E 21:21:32 10° NE
Cosmos 1953 4.2 21:16:57 10° NNE 21:19:20 16° ENE 21:20:51 13° E
Cosmos 968 Rocket 3.7 21:15:49 11° S 21:20:35 51° ESE 21:25:37 10° NNE
SPOT 3 Rocket 3.5 21:18:16 18° SSE 21:22:11 75° ENE 21:27:21 10° N
SeaSat 1 2.5 21:19:03 18° SSE 21:22:45 78° WSW 21:27:41 10° NNW
Cosmos 1741 Rocket 4.0 21:22:19 10° SSW 21:27:34 82° ESE 21:32:54 10° NNE
Cosmos 2360 Rocket 2.3 21:22:03 10° NNW 21:27:43 66° ENE 21:31:30 21° SE
SPOT 5 4.0 21:25:18 10° SSW 21:29:13 33° W 21:33:12 10° NNW
BlueWalker 3 3.6 21:31:50 17° E 21:31:50 17° E 21:33:12 10° E
Landsat 4 3.4 21:30:19 25° S 21:32:13 83° WSW 21:35:40 10° NNW
COSMOS 2455 4.5 21:35:30 14° ESE 21:36:08 15° ESE 21:39:14 10° ENE
Meteor 1-23 Rocket 4.5 21:32:18 10° SSW 21:37:56 72° WNW 21:43:41 10° N
SL-16 R/B 2.8 21:34:06 10° NW 21:39:34 50° WSW 21:43:40 17° S
Landsat 5 3.4 21:37:57 10° NNE 21:41:58 61° ESE 21:44:11 26° S
USA 234 3.5 21:35:48 10° NE 21:42:20 75° NW 21:48:50 10° WSW
SL-14 R/B 3.5 21:39:22 15° SSW 21:42:24 65° W 21:46:11 10° N
Cosmos 2333 Rocket 2.2 21:37:52 10° NNW 21:43:40 80° ENE 21:47:09 25° SSE
Cosmos 1862 Rocket 3.5 21:42:41 21° S 21:45:37 85° E 21:50:03 10° N
Okean 3 3.3 21:46:07 27° S 21:48:19 73° E 21:52:29 10° NNE
Cosmos 1346 Rocket 2.8 21:45:28 10° NNW 21:49:20 73° W 21:51:09 29° S
Cosmos 2315 Rocket 4.3 21:46:55 10° NNW 21:53:15 69° W 21:58:04 18° S
ERS-1 Rocket 4.2 21:49:55 12° SSW 21:54:04 36° W 21:58:42 10° NNW
Cosmos 1455 3.0 21:51:12 10° NNE 21:54:22 31° ENE 21:55:03 28° E
Cosmos 1833 4.1 21:49:36 10° SSW 21:55:15 89° ESE 22:00:54 10° NNE
Atlas Centaur 2 4.0 21:49:38 10° WSW 21:56:03 25° SSW 21:58:33 22° S
CZ-4C R/B 3.7 21:58:28 14° E 21:58:28 14° E 22:00:12 10° ENE
H-2A R/B 4.5 21:58:41 14° E 22:00:25 18° ENE 22:03:19 10° NNE
RESURS DK-1 3.5 21:57:12 10° NW 22:00:52 33° WSW 22:02:41 22° SSW
Cosmos 1932 4.4 21:55:27 10° SSW 22:01:47 79° ESE 22:08:05 10° NE
Cosmos 2237 Rocket 4.4 21:58:55 10° N 22:02:21 16° NE 22:05:45 10° E
SJ 16-02 1.3 22:00:21 21° SSW 22:03:13 83° WNW 22:07:34 10° NNE
Terra 3.2 22:00:36 14° SSW 22:04:04 31° W 22:08:17 10° NNW
Cosmos 1707 Rocket 4.4 22:02:28 14° SSW 22:06:08 48° WNW 22:10:27 10° N
Cosmos 2322 4.5 22:01:07 10° NNW 22:06:31 42° ENE 22:09:35 23° ESE
Meteor 1-16 Rocket 4.3 22:00:38 10° N 22:06:36 88° E 22:09:50 29° S
CZ-2C R/B 4.2 22:04:18 10° NNE 22:08:29 40° E 22:09:29 35° SE
Aureole 3 3.7 22:07:02 26° SSW 22:09:11 66° W 22:13:58 10° N
Cosmos 2333 4.2 22:06:44 10° NNW 22:12:32 80° WSW 22:15:22 32° SSE
Cosmos 2322 Rocket 3.2 22:16:38 10° NW 22:21:48 37° WSW 22:24:47 22° SSW
ARIANE 5 R/B 2.9 22:23:17 39° SE 22:24:30 54° ENE 22:28:45 10° N
SL-4 R/B 3.6 22:23:59 10° NW 22:27:35 32° NNE 22:31:22 10° E
Cosmos 2297 Rocket 3.5 22:27:16 22° ESE 22:27:46 22° E 22:31:57 10° NE
ATLAS 2AS CENTAUR R/B 2.9 22:21:53 10° NW 22:28:31 57° WSW 22:31:35 31° S
Okean 1-7 3.4 22:30:05 31° SSW 22:31:57 61° W 22:36:15 10° N
USA 281 3.2 22:34:22 32° SE 22:37:43 76° ENE 22:44:18 10° NNW
Cosmos 1745 Rocket 4.1 22:34:59 35° SSE 22:37:43 65° E 22:44:01 10° NNE
Cosmos 839 Rocket 4.1 22:32:11 10° NW 22:38:52 67° WSW 22:41:29 36° S
Cosmos 1908 Rocket 3.6 22:38:08 10° NNW 22:42:27 67° W 22:43:32 47° SSW
GP-B 3.0 22:38:19 10° N 22:42:45 90° NNW 22:43:50 51° S
ATLAS CENTAUR R/B 4.0 22:40:48 10° W 22:43:06 16° NW 22:45:28 10° N
Cosmos 1782 Rocket 3.6 22:41:03 10° N 22:45:22 66° E 22:46:09 53° SE
Okean 2 4.3 22:43:49 28° SW 22:45:23 41° WNW 22:49:13 10° N
Meteor 1-4 Rocket 4.4 22:45:05 16° W 22:46:06 19° WNW 22:48:21 10° NNW
Cosmos 2219 Rocket 2.5 22:40:58 10° NNW 22:46:32 58° WSW 22:48:35 37° S
NOSS 8 (F) 4.4 22:47:50 75° SE 22:47:53 75° SE 22:51:11 10° NE
Nadezhda 1 Rocket 3.9 22:41:39 10° N 22:47:59 81° E 22:50:31 38° SSE
COSMOS 2428 2.8 22:43:00 10° NNW 22:48:43 71° ENE 22:50:54 38° SE
Cosmos 1386 Rocket 4.4 22:46:54 33° S 22:49:56 89° W 22:56:10 10° N
Cosmos 1315 Rocket 4.3 22:52:43 21° WSW 22:54:33 31° WNW 22:58:09 10° N
Cosmos 1953 3.2 22:51:47 10° NNW 22:55:19 36° W 22:55:58 34° WSW
H-2A R/B 4.1 22:57:00 10° ENE 22:59:07 14° E 22:59:07 14° E
Cosmos 1242 Rocket 3.6 23:00:40 29° WNW 23:00:40 29° WNW 23:02:50 10° N
PSLV R/B 3.9 22:57:04 10° N 23:01:04 74° WNW 23:01:43 58° SW
Cosmos 1300 Rocket 3.4 22:58:13 10° N 23:02:33 84° E 23:03:09 65° SSE
Cosmos 1570 Rocket 4.1 22:58:19 10° NNW 23:03:39 70° WSW 23:05:08 47° S
Cosmos 304 Rocket 4.1 23:03:17 45° ESE 23:03:39 46° ESE 23:08:12 10° NNE
BlueWalker 3 2.4 23:06:00 23° WSW 23:08:09 58° NNW 23:11:51 10° NE
Cosmos 158 Rocket 3.9 23:03:34 10° NNW 23:08:53 88° W 23:10:13 52° SSE
Cosmos 2360 Rocket 4.0 23:07:16 10° WNW 23:11:06 19° W 23:13:15 15° SW
Cosmos 405 Rocket 4.0 23:08:37 10° NNE 23:11:58 29° ENE 23:12:07 29° ENE
ALOS 2 2.7 23:14:27 53° ESE 23:15:09 62° ENE 23:19:29 10° N
Okean 2 Rocket 4.4 23:13:16 10° NNE 23:17:09 28° ENE 23:18:04 26° E
Cosmos 1378 Rocket 4.4 23:20:47 35° E 23:20:57 35° E 23:24:56 10° NNE
COSMOS 2455 2.8 23:18:35 37° SSW 23:21:10 89° ESE 23:27:14 10° NNE
CENTAUR R/B 3.3 23:24:42 27° ESE 23:25:02 28° ESE 23:30:22 10° NE
Cosmos 1408 3.5 23:27:13 34° NW 23:27:13 34° NW 23:29:27 10° N
Cosmos 2333 Rocket 4.2 23:23:57 10° WNW 23:27:10 15° W 23:29:09 13° WSW
NOSS 0 Rocket 3.9 23:21:17 10° NNW 23:27:33 86° WSW 23:29:40 45° SSE
Cosmos 1455 4.3 23:26:27 10° NW 23:28:30 15° W 23:28:46 15° W
Spot 2 4.4 23:28:59 55° SSE 23:30:07 88° ENE 23:35:12 10° NNW
Cosmos 773 Rocket 3.9 23:25:38 10° NNW 23:30:48 78° ENE 23:32:01 53° SE
Cosmos 1703 3.2 23:34:51 69° WNW 23:34:51 69° WNW 23:38:23 10° N
H-2A R/B 3.0 23:34:40 46° WSW 23:35:00 47° W 23:39:08 10° NNW
Cosmos 2221 Rocket 4.3 23:34:53 38° E 23:35:08 39° E 23:39:16 10° NNE
Cosmos 1892 3.8 23:37:30 31° ENE 23:37:30 31° ENE 23:40:04 10° NNE
Cosmos 1709 Rocket 4.2 23:34:37 37° SSW 23:37:14 68° W 23:43:35 10° N
Cosmos 2208 Rocket 4.5 23:33:19 10° NNW 23:38:15 45° WSW 23:39:08 41° SW
SL-16 R/B 4.0 23:35:33 10° N 23:40:17 26° NE 23:44:44 11° ESE
Cosmos 2242 Rocket 4.2 23:39:46 41° WSW 23:40:45 49° WNW 23:45:12 10° N
Sich 1 Rocket 4.0 23:38:34 10° N 23:42:51 50° ENE 23:43:22 47° ESE
Cosmos 1777 Rocket 3.9 23:43:34 56° S 23:44:42 82° ESE 23:50:01 10° NNE
Cosmos 1503 Rocket 4.0 23:43:27 51° SSW 23:44:52 84° WNW 23:50:13 10° NNE
CZ-4C R/B 2.0 23:43:30 41° WSW 23:45:00 68° NW 23:50:31 10° NNE
Cosmos 2237 Rocket 2.1 23:41:37 10° NNW 23:47:20 82° ENE 23:48:59 48° SSE
BREEZE-M DEB (TANK) 3.9 23:38:25 10° WNW 23:48:03 50° N 23:51:13 10° E
Cosmos 2227 Rocket 2.4 23:50:16 47° SE 23:51:17 54° ESE 23:56:49 10° NNE
Cosmos 2184 Rocket 4.3 23:50:14 40° SE 23:52:15 55° E 23:58:27 10° NNE
Meteor 1-24 Rocket 3.9 23:52:26 43° SW 23:54:18 68° WNW 23:59:57 10° N
